Lapse_Rate
6.6 6.6 6.6 6.7 6.7 6.9 6.7 6.5 6.3 6.5 6.8 6.9 6.6 6.6 6.2 6.0 5.8 6.0 5.8 5.5 5.8 6.1 6.2 6.3 6.6 6.3 6.4 6.3 6.5 6.6 6.5 6.5 6.2 6.0 6.5 6.7 7.3 7.5 7.4 7.4 6.4 6.2 6.2 6.1
7.2 7.1 6.9 6.8 7.0 7.0 6.9 6.9 6.9 6.9 6.8 6.6 6.5 6.6 6.6 6.3 6.1 6.1 6.1 6.1 6.0 6.1 6.1 6.3 6.4 6.2 6.4 6.5 6.6 6.8 6.9 6.8 6.6 6.4 6.8 6.8 7.2 7.2 7.3 7.0 6.7 6.2 6.4 6.5
7.5 7.5 7.4 7.3 7.2 7.2 7.2 7.1 6.9 6.9 7.0 7.3 7.6 7.5 7.2 6.5 6.0 6.1 6.3 6.3 6.2 6.1 6.1 6.7 6.2 6.6 6.9 7.1 6.9 7.0 7.1 7.0 6.7 6.9 6.8 6.0 6.0 6.6 6.7 6.7 6.1 6.5 6.4 6.5
7.5 7.4 7.4 7.4 7.3 7.1 7.0 7.0 7.0 7.4 7.4 7.5 7.4 7.3 7.1 7.1 6.8 6.7 6.3 6.1 6.3 6.4 6.4 6.6 6.5 6.7 6.9 7.1 7.2 7.1 7.2 7.1 7.2 7.0 7.3 7.3 6.8 7.1 6.8 6.3 6.7 6.4 6.4 6.3
7.6 7.5 7.4 7.6 7.6 7.8 7.5 7.5 7.4 7.6 7.6 7.5 7.3 7.2 7.1 7.3 7.4 6.9 6.6 6.6 6.4 6.1 6.1 6.5 6.5 6.8 6.9 7.1 7.1 7.1 7.2 7.0 7.1 7.0 7.1 7.2 7.0 7.1 7.6 6.8 6.9 7.1 6.7 6.3
7.8 7.8 7.9 7.9 7.8 7.7 7.8 7.7 7.6 7.6 7.3 7.2 7.2 7.3 7.6 7.3 7.2 7.1 6.9 7.0 6.8 7.0 6.7 6.4 6.3 6.4 6.8 7.2 6.7 6.7 7.2 7.1 7.1 7.0 7.2 7.2 6.8 8.1 8.3 8.1 7.6 7.1 7.4 7.5
7.9 8.1 8.0 8.0 7.9 7.7 7.6 7.4 7.4 7.3 7.3 7.4 7.6 7.4 7.3 7.2 7.2 7.1 6.8 6.8 7.0 7.0 7.0 6.6 6.5 6.7 7.1 7.1 7.3 7.2 6.9 7.2 7.3 7.3 7.3 7.1 8.0 8.1 8.0 7.8 7.5 7.6 7.3 7.2
7.7 7.7 7.8 7.8 7.7 7.6 7.6 7.5 7.5 7.5 7.4 7.4 7.2 7.3 7.4 7.2 7.3 7.2 7.1 7.3 7.4 6.9 6.6 6.7 6.7 6.8 6.8 7.1 7.3 7.2 7.2 7.3 7.5 7.6 7.4 7.5 7.9 8.2 8.1 8.1 8.1 7.5 7.1 7.4
7.7 7.6 7.6 7.5 7.4 7.2 7.3 7.3 7.2 7.3 7.2 7.4 7.4 7.4 7.4 7.4 7.4 7.4 7.4 7.3 7.4 7.4 7.1 6.7 6.2 6.5 7.1 7.5 7.3 7.3 6.9 7.6 7.4 7.4 6.9 6.4 7.9 8.0 7.8 7.5 7.2 7.5 7.0 7.3
7.4 7.4 7.3 7.2 7.1 7.0 7.1 7.2 7.2 7.2 7.1 7.0 7.2 7.5 7.4 7.4 7.4 7.2 7.3 7.2 7.3 7.2 7.0 6.3 6.3 6.4 6.9 7.2 7.5 7.0 7.4 7.2 7.4 7.4 7.0 7.4 7.4 7.9 7.6 7.3 7.9 7.6 7.3 7.5
7.2 7.2 7.2 7.2 7.2 7.1 7.0 7.1 7.1 6.9 6.9 7.0 7.1 7.4 7.2 7.4 7.3 7.2 7.0 6.7 7.0 7.0 6.7 6.7 6.7 6.7 7.1 7.5 7.4 7.3 7.5 7.4 7.3 7.3 7.0 6.9 8.1 7.7 7.7 8.1 8.2 8.1 7.9 7.9
7.1 7.3 7.3 7.3 7.3 7.2 7.1 7.1 7.5 7.0 6.6 6.9 7.2 7.0 6.7 7.1 7.7 7.2 6.9 6.6 6.3 6.7 7.1 6.9 7.0 7.2 7.5 7.6 7.6 7.3 7.2 7.6 7.8 7.7 7.8 8.2 8.1 8.3 8.3 8.1 7.9 7.8 7.8 7.8
7.2 7.5 7.5 7.4 7.3 7.3 7.1 7.1 7.2 6.9 6.6 6.8 6.5 7.2 7.9 7.1 6.6 6.7 6.2 6.4 6.3 6.7 6.9 7.0 6.7 6.2 7.1 7.4 7.2 7.6 7.9 7.3 7.3 7.9 7.8 8.2 8.0 7.9 7.9 8.0 7.9 7.9 7.9 7.8
7.6 7.6 7.5 7.4 7.6 7.5 7.2 7.1 7.1 6.9 6.8 6.6 7.4 7.7 7.3 7.4 6.3 5.9 5.8 6.3 6.9 6.6 6.7 6.2 6.2 6.1 6.8 7.1 7.3 7.6 7.9 7.6 7.7 7.7 8.1 8.2 7.8 7.8 7.7 7.8 7.7 7.7 7.8 7.9
7.7 7.6 7.7 7.8 7.6 7.4 7.2 7.1 7.2 7.1 7.1 7.4 7.8 7.8 7.9 7.0 6.7 6.9 6.7 6.6 6.6 6.6 6.2 5.8 6.0 6.6 6.2 6.6 7.1 7.0 7.4 7.8 8.1 8.2 8.5 8.0 7.9 7.9 7.9 7.8 7.6 7.6 7.8 7.7
7.7 7.7 7.7 7.5 7.5 7.4 7.4 7.3 7.6 7.6 7.6 6.9 6.6 7.3 7.2 6.7 6.7 6.5 6.5 6.3 6.4 6.2 5.8 5.8 6.2 7.1 6.4 7.1 7.2 7.2 7.4 7.9 8.1 8.0 7.9 8.1 8.1 8.2 8.1 7.7 7.6 7.7 7.8 7.9
7.5 7.4 7.5 7.5 7.7 7.5 7.6 7.5 7.7 7.4 7.2 7.0 6.6 6.6 7.1 7.4 7.2 7.2 7.1 7.1 6.5 6.2 6.1 6.1 6.6 6.6 7.0 7.2 7.2 7.6 7.3 7.9 8.1 8.1 8.0 8.2 8.1 7.9 7.8 7.9 7.8 7.6 7.5 7.6
7.3 7.3 7.4 7.5 7.5 7.4 7.5 7.5 7.3 7.1 7.0 6.6 6.5 6.7 6.6 7.3 7.1 6.8 6.5 6.6 6.4 6.4 6.1 6.7 6.7 7.0 7.1 7.0 7.4 7.4 7.7 7.9 8.2 8.3 8.2 8.1 8.1 7.8 7.9 7.7 7.5 7.3 7.3 7.7
7.6 7.8 7.7 7.5 7.3 7.3 7.3 7.4 7.3 7.2 6.9 6.7 6.6 6.8 6.7 7.1 7.1 6.9 7.2 7.0 6.8 6.8 6.7 7.3 7.1 6.8 6.9 7.6 8.0 8.2 8.2 8.1 7.8 7.8 7.9 7.9 7.8 7.8 7.8 7.9 7.8 7.7 7.7 7.6
7.7 7.6 7.5 7.3 7.0 7.2 6.9 6.8 7.1 6.9 6.7 7.0 7.2 7.1 7.1 7.2 7.1 7.2 7.0 6.9 7.0 7.3 7.5 7.7 7.3 7.6 7.6 7.8 8.0 8.2 8.1 7.9 7.7 8.0 7.7 7.7 7.8 7.7 7.7 7.8 7.7 7.7 7.7 7.4
7.3 7.2 7.1 7.1 7.2 7.4 7.3 7.2 7.2 7.3 7.2 7.2 7.4 7.3 7.0 7.1 7.3 7.3 7.5 7.4 7.4 7.4 7.5 7.4 7.3 8.0 8.5 7.8 7.5 7.5 7.5 7.7 7.8 7.7 7.8 7.9 7.7 7.4 7.6 7.7 7.7 7.6 7.5 7.4
7.3 7.5 7.5 7.6 7.8 7.8 7.6 7.6 7.5 7.5 7.3 7.2 7.2 7.2 7.0 6.9 7.0 7.1 7.1 7.2 7.1 7.0 6.9 7.0 7.4 8.2 7.4 7.7 7.8 7.8 7.7 7.8 7.9 7.8 7.9 7.4 7.4 7.3 7.6 7.7 7.6 7.4 7.4 7.4
7.4 7.5 7.6 7.7 7.9 7.7 7.7 7.8 7.8 7.7 7.5 7.1 7.0 7.0 6.9 6.7 6.8 6.9 7.0 7.2 7.2 7.1 6.8 7.0 7.9 7.6 7.5 7.2 7.7 7.8 8.1 8.0 7.7 7.6 7.4 7.3 7.5 7.5 7.6 7.5 7.4 7.5 7.6 7.5
7.4 7.6 7.7 7.9 7.8 7.8 7.7 7.7 7.5 7.3 7.2 7.0 7.2 7.1 6.9 6.9 6.8 7.0 7.0 7.0 7.0 7.2 6.9 7.9 7.7 7.4 7.3 7.5 8.0 7.8 7.7 7.6 7.2 7.2 7.4 7.5 7.4 7.4 7.5 7.5 7.5 7.6 7.5 7.5
7.4 7.4 7.6 7.4 7.7 7.6 7.6 7.3 7.1 7.1 7.2 7.4 7.4 7.3 7.3 7.1 7.1 7.4 7.4 7.2 7.2 7.4 7.9 7.9 7.8 7.4 7.6 7.9 8.0 7.9 7.6 7.5 7.3 7.3 7.4 7.4 7.4 7.5 7.7 7.8 7.7 7.7 7.7 7.7
7.5 7.6 7.7 7.7 7.5 7.5 7.6 7.6 7.4 7.1 7.1 7.2 7.2 7.3 7.3 7.5 7.5 7.2 7.4 7.3 7.7 8.0 8.2 8.1 7.9 7.8 7.9 7.8 7.7 7.7 7.6 7.6 7.4 7.3 7.3 7.4 7.5 7.7 7.8 7.8 7.8 7.8 7.7 7.6
7.5 7.6 7.6 7.6 7.7 7.8 8.0 7.7 7.3 7.4 7.4 7.5 7.2 7.3 7.3 7.3 7.4 7.3 7.5 7.8 7.9 7.8 7.8 7.9 7.8 7.9 7.9 7.8 7.7 7.6 7.4 7.3 7.2 7.2 7.2 7.4 7.6 7.7 7.7 7.7 7.6 7.5 7.5 7.5
Wind_Speed
11 9 8 8 8 8 8 3 2 4 3 2 1 2 4 1 3 1 2 1 2 1 2 2 2 3 2 5 2 3 3 1 5 7 15 12 14 5 1 6 8 4 5 11
11 10 7 6 6 6 3 3 2 3 2 3 2 0 1 1 2 2 2 3 3 1 2 3 4 2 0 2 3 2 2 3 6 15 5 7 6 7 11 11 2 10 9 8
11 11 9 7 7 7 4 3 3 3 3 1 3 2 4 2 3 1 2 3 0 0 2 3 5 3 3 2 3 6 3 3 6 9 10 1 6 14 10 3 5 13 14 21
11 10 10 8 7 7 4 3 2 1 3 2 3 2 1 1 3 2 4 3 6 4 4 4 8 6 3 3 3 4 1 5 7 10 10 7 9 12 12 11 11 6 13 16
10 9 9 10 10 8 3 3 3 1 2 3 8 7 3 6 3 2 3 7 2 4 10 8 4 8 2 2 1 5 3 4 6 5 12 13 8 14 11 16 16 9 6 13
11 10 11 11 12 5 3 1 2 3 1 4 7 5 3 5 4 3 5 4 3 6 5 4 5 9 16 14 11 8 6 3 4 7 3 0 7 13 13 10 6 5 7 7
12 11 11 12 12 7 3 2 3 3 2 3 4 2 5 7 6 4 4 3 0 2 8 13 6 9 14 16 18 15 9 6 3 3 2 6 6 4 6 14 9 14 10 11
13 12 12 11 11 12 3 2 3 3 2 4 4 6 3 2 5 6 8 9 12 6 5 3 5 4 4 13 19 19 16 8 5 3 5 6 9 6 6 7 7 14 14 12
15 13 12 12 11 14 4 2 3 3 3 5 5 4 8 5 3 4 5 6 5 5 3 3 4 4 4 3 5 16 17 14 8 4 4 6 5 3 2 1 6 3 5 6
17 15 14 13 13 13 4 2 5 3 2 5 5 4 4 4 3 2 3 4 3 6 4 5 4 8 1 6 6 3 8 10 16 7 5 6 6 8 0 2 6 3 0 3
19 18 16 14 15 15 5 1 9 6 3 7 5 6 7 1 4 4 2 4 3 2 4 3 4 5 7 8 5 5 11 8 4 7 4 9 8 2 8 6 3 3 4 4
19 18 17 17 17 17 14 5 5 4 4 4 3 8 13 10 12 4 5 5 2 3 1 3 4 4 3 6 6 4 4 5 5 8 7 4 4 6 4 2 3 6 4 5
18 17 17 17 18 18 15 3 4 2 6 10 11 13 17 14 15 16 12 7 8 5 3 0 3 8 3 8 10 4 3 3 4 3 6 7 7 4 4 2 5 4 6 5
15 14 16 15 14 16 17 4 4 6 2 4 12 8 13 22 18 19 19 20 10 4 4 6 7 5 4 4 5 8 5 11 7 2 5 3 6 5 8 7 3 1 2 1
9 10 12 14 17 20 19 7 9 10 7 4 3 3 5 9 17 23 23 19 16 8 10 6 8 5 7 6 3 4 4 6 5 4 7 6 4 3 3 5 4 5 5 3
8 11 15 16 20 24 6 3 7 18 11 5 6 4 10 12 16 19 19 16 12 9 5 6 6 15 7 4 3 5 5 5 6 5 4 6 4 3 4 4 5 4 5 5
10 9 13 20 24 8 3 2 2 18 10 2 3 4 2 5 12 7 6 17 8 6 6 6 5 4 7 2 3 4 6 7 4 3 3 2 5 5 6 4 3 4 4 5
9 11 18 21 7 2 2 3 5 14 4 3 3 5 2 0 2 2 2 5 4 5 4 2 4 2 3 3 5 5 6 2 1 6 6 5 3 5 5 6 6 7 5 5
11 14 20 1 2 2 2 6 12 3 1 2 2 2 4 3 2 1 2 1 3 3 4 4 4 2 4 5 8 9 8 6 5 3 3 4 2 5 5 6 6 8 6 5
17 1 1 2 3 4 8 1 2 2 1 1 2 0 3 2 2 2 1 0 2 2 0 1 1 3 5 9 12 6 7 6 5 4 2 4 4 5 5 5 4 5 8 6
2 1 2 2 5 2 2 2 2 2 2 3 2 3 2 1 1 2 2 1 2 1 2 2 2 3 4 4 6 6 8 7 8 6 5 6 5 6 6 5 5 6 7 6
2 2 2 2 2 2 2 2 1 3 3 2 2 2 3 2 1 1 1 2 1 3 2 1 3 3 4 7 6 6 6 8 7 5 5 5 4 7 6 6 6 5 6 7
2 1 2 2 2 4 3 2 2 2 1 2 2 1 1 1 1 1 1 3 2 1 1 3 4 2 4 4 3 5 9 9 7 7 6 7 6 7 5 6 4 7 6 6
0 1 4 4 2 4 3 2 2 3 2 3 2 3 3 2 2 2 2 3 2 3 4 4 2 1 3 2 3 7 6 7 7 6 6 7 8 7 7 6 4 7 6 5
3 3 4 4 3 2 3 3 2 3 3 4 2 2 4 4 1 3 2 1 3 5 4 3 2 6 4 3 4 5 4 4 5 3 5 7 7 8 7 5 6 6 5 6
2 3 3 2 1 3 2 2 3 2 2 2 2 2 3 3 3 2 5 3 4 3 3 2 2 3 3 3 5 4 5 6 5 5 5 6 6 6 6 4 6 5 4 5
3 3 1 1 1 3 3 1 2 2 1 1 2 3 4 1 1 2 4 4 3 2 2 2 2 4 4 5 6 5 8 6 6 5 5 6 6 6 4 8 4 6 4 4
Wind_Direction
154 147 145 131 122 112 54 88 71 306 321 143 140 167 175 292 313 357 334 22 83 322 352 336 271 269 24 344 329 52 13 100 281 272 275 256 247 245 171 234 252 239 250 255
154 147 139 120 123 81 114 87 98 331 357 183 184 124 274 208 219 281 80 355 47 265 239 313 244 272 118 354 64 97 339 31 322 321 346 7 11 11 14 341 129 250 268 256
158 148 138 134 121 97 82 93 87 350 40 55 121 92 269 218 212 224 269 237 140 324 292 240 271 253 233 168 106 132 143 161 224 270 280 285 311 324 332 42 279 275 250 267
156 155 148 146 141 115 89 47 229 225 177 237 152 175 339 101 186 230 186 288 202 173 246 220 238 268 271 220 200 136 191 222 214 231 235 239 248 256 284 286 266 264 316 285
164 163 163 158 147 117 78 126 126 78 143 85 169 203 237 188 189 198 273 236 92 233 243 249 303 331 302 308 276 172 182 254 196 263 226 228 256 251 254 255 265 237 298 324
177 179 176 172 165 112 103 249 40 103 295 138 163 211 200 189 170 262 237 257 346 276 277 319 291 288 281 264 272 250 198 217 206 254 178 178 271 246 228 233 212 218 234 212
186 190 188 183 183 131 120 169 104 90 236 175 200 184 176 214 231 252 301 34 162 254 334 320 279 274 252 249 248 235 223 207 207 266 180 237 242 205 202 224 236 217 258 259
192 196 190 188 196 165 103 147 115 124 214 226 228 235 217 261 254 265 264 263 254 281 291 297 313 293 227 236 237 230 213 210 231 230 215 298 297 255 182 196 262 231 231 270
194 198 195 196 202 184 124 164 134 115 113 241 202 196 217 222 213 323 248 257 223 157 180 126 216 237 297 265 258 215 211 207 215 168 207 222 234 283 177 213 285 220 181 245
194 199 204 207 210 209 153 183 149 105 205 221 155 188 183 165 159 207 292 285 271 146 187 225 208 246 264 272 239 201 205 203 215 200 212 275 237 242 106 136 247 209 271 294
197 202 206 213 221 223 166 196 178 197 227 245 214 216 216 146 164 190 237 12 299 11 216 214 223 241 224 230 231 212 199 177 205 210 214 256 206 131 180 214 307 316 308 266
207 208 208 218 227 228 210 223 178 160 227 256 231 234 231 218 223 198 200 201 208 201 346 15 347 309 247 209 237 208 228 203 181 185 206 227 241 204 201 144 239 276 258 260
213 212 220 233 237 235 220 196 140 172 243 260 244 235 226 219 217 215 237 232 214 222 140 303 265 253 306 222 228 169 227 148 216 115 220 229 240 281 278 224 225 266 272 287
207 213 230 237 241 240 236 214 178 195 252 261 264 213 232 230 225 217 214 229 229 210 197 230 240 255 307 279 270 209 183 162 179 276 277 333 290 252 258 262 260 230 77 352
203 221 240 250 252 250 246 228 212 202 209 263 261 295 218 200 209 217 220 223 226 224 225 227 246 235 242 237 271 244 192 172 165 207 200 162 209 184 223 241 261 268 158 131
234 251 257 260 266 265 265 247 213 214 205 240 261 257 251 220 195 204 207 213 211 213 208 227 228 242 251 213 228 258 250 214 167 186 183 177 156 218 207 212 242 242 191 153
255 270 283 282 280 255 199 217 300 195 175 229 256 263 231 240 248 223 218 203 190 192 204 221 250 269 201 209 224 255 213 222 201 181 149 224 173 216 185 179 113 93 80 105
265 296 290 282 223 331 274 277 295 170 144 205 253 270 307 208 227 175 158 130 142 162 176 199 207 211 230 239 238 253 230 185 224 233 205 200 183 150 132 115 123 116 131 123
303 283 277 238 159 192 248 169 126 65 203 207 210 250 278 337 333 52 71 98 155 145 193 207 160 188 223 216 203 218 214 185 182 126 108 100 163 126 124 124 151 136 151 143
282 260 127 269 208 142 127 60 130 206 231 293 245 331 272 6 335 349 27 116 139 143 243 40 104 258 246 228 220 216 230 226 161 141 154 151 158 170 170 192 149 142 151 139
32 334 228 266 332 82 63 161 158 191 267 207 221 187 237 307 45 289 357 82 23 85 254 156 267 267 247 311 293 247 218 201 206 203 175 146 155 186 164 146 140 134 135 148
230 293 310 350 46 45 108 230 274 199 234 232 229 213 172 287 67 74 288 117 141 189 192 116 288 259 304 337 336 334 202 178 179 166 144 152 182 140 135 129 131 129 125 125
32 79 287 54 322 30 141 263 296 316 228 220 165 315 284 29 242 283 354 71 218 98 59 236 232 281 350 307 342 38 51 76 81 75 86 107 105 78 93 114 104 120 110 107
145 175 296 160 273 224 194 193 225 261 240 212 190 160 182 215 211 197 170 226 172 225 222 233 234 180 193 178 67 79 61 70 80 81 86 90 90 80 67 81 103 113 108 112
210 193 224 211 231 266 222 204 231 232 226 204 200 194 166 189 157 188 189 283 224 218 226 230 201 189 147 94 83 100 92 84 78 67 92 87 87 91 81 50 81 96 99 110
236 225 244 205 153 266 283 221 233 211 208 193 217 159 168 201 163 160 219 171 232 255 222 249 175 135 123 115 103 97 104 97 95 83 86 89 88 101 109 79 76 69 94 115
229 254 201 154 206 238 251 209 244 252 266 204 158 133 192 110 135 244 180 205 221 218 275 291 174 156 152 131 123 136 117 111 108 105 97 104 118 123 112 92 90 93 88 101